Black River Falls, WI

3:01 AM CDT on August 25, 2016 (GMT -0500)
Black River Falls Area

Weather History for KBCK - October, 2013

Change the Weather History Date:

Thursday, October 17, 2013

  Actual Average (KLSE) Record (KLSE)
Temperature  
Mean Temperature 43 °F 50 °F  
Max Temperature 56 °F 60 °F 84 °F (1910)
Min Temperature 30 °F 40 °F 23 °F (1952)
Degree Days  
Heating Degree Days 22 15  
Month to date heating degree days 214  
Since 1 July heating degree days 374  
Cooling Degree Days 0 0  
Month to date cooling degree days 7  
Year to date cooling degree days 781  
Moisture  
Dew Point 36 °F    
Average Humidity 86    
Maximum Humidity 100    
Minimum Humidity 43    
Precipitation  
Precipitation 0.00 in 0.07 in 2.28 in (1998)
Month to date precipitation 1.28  
Year to date precipitation 28.80  
Snow  
Snow 0.00 in 0.00 in T in (2002)
Month to date snowfall 0.0  
Since 1 July snowfall 0.0  
Snow Depth -    
Sea Level Pressure  
Sea Level Pressure 29.83 in    
Wind  
Wind Speed 1 mph (SW)    
Max Wind Speed 8 mph    
Max Gust Speed 9 mph    
Visibility 6 miles    
Events Fog , Rain    
T = Trace of Precipitation, MM = Missing Value Source: NWS Daily Summary

Daily Weather History Graph

Daily Weather History Graph

Search for Another Location

Airport or City:

Trip Planner

Search our weather history database for the weather conditions in past years. The results will help you decide how hot, cold, wet, or windy it might be!

Date:

Astronomy

Oct. 17, 2013 Rise Set
Actual Time 7:21 AM CDT 6:15 PM CDT
Civil Twilight 6:51 AM CDT 6:44 PM CDT
Nautical Twilight 6:18 AM CDT 7:18 PM CDT
Astronomical Twilight 5:44 AM CDT 7:51 PM CDT
Moon 5:31 PM CDT (10/17) 5:51 AM CDT (10/17)
Length of Visible Light 11h 52m
Length of Day
10h 54m
Waxing Gibbous, 98% of the Moon is Illuminated
Oct 17
Waxing Gibbous
Oct 18
Full
Oct 26
Last Quarter
Nov 3
New
Nov 9
First Quarter

Hourly Weather History & Observations

Time (CDT) Temp. Windchill Dew Point Humidity Pressure Visibility Wind Dir Wind Speed Gust Speed Precip Events Conditions
12:15 AM 31.1 °F - 31.1 °F 100% 29.91 in 0.2 mi Calm Calm - N/A Fog Light Freezing Fog
12:35 AM 31.1 °F - 31.1 °F 100% 29.91 in 0.2 mi Calm Calm - N/A Fog Light Freezing Fog
12:55 AM 31.8 °F - 31.8 °F 100% 29.91 in 0.2 mi Calm Calm - N/A Fog Fog
1:15 AM 32.0 °F - 32.0 °F 100% 29.91 in 0.2 mi Calm Calm - N/A Fog Fog
1:35 AM 32.0 °F - 32.0 °F 100% 29.91 in 0.2 mi Calm Calm - N/A Fog Fog
1:55 AM 32.0 °F - 32.0 °F 100% 29.91 in 0.2 mi Calm Calm - N/A Fog Fog
2:15 AM 31.6 °F - 31.6 °F 100% 29.91 in 0.2 mi Calm Calm - N/A Fog Fog
2:35 AM 31.1 °F - 31.1 °F 100% 29.90 in 0.2 mi Calm Calm - N/A Fog Light Freezing Fog
2:55 AM 30.2 °F - 30.2 °F 100% 29.89 in 0.2 mi Calm Calm - N/A Fog Light Freezing Fog
3:15 AM 30.7 °F - 30.7 °F 100% 29.88 in 0.2 mi Calm Calm - N/A Fog Light Freezing Fog
3:35 AM 30.0 °F - 30.0 °F 100% 29.88 in 0.2 mi Calm Calm - N/A Fog Light Freezing Fog
3:55 AM 31.1 °F - 31.1 °F 100% 29.88 in 0.2 mi Calm Calm - N/A Fog Light Freezing Fog
4:15 AM 31.1 °F - 31.1 °F 100% 29.88 in 0.2 mi Calm Calm - N/A Fog Light Freezing Fog
4:35 AM 31.3 °F - 31.3 °F 100% 29.88 in 0.2 mi Calm Calm - N/A Fog Light Freezing Fog
4:55 AM 31.1 °F - 31.1 °F 100% 29.87 in 0.2 mi Calm Calm - N/A Fog Light Freezing Fog
5:15 AM 31.1 °F - 31.1 °F 100% 29.87 in 0.2 mi Calm Calm - N/A Fog Light Freezing Fog
5:35 AM 31.1 °F - 31.1 °F 100% 29.87 in 0.2 mi Calm Calm - N/A Fog Light Freezing Fog
5:55 AM 31.1 °F - 31.1 °F 100% 29.87 in 0.2 mi Calm Calm - N/A Fog Light Freezing Fog
6:15 AM 31.6 °F - 31.6 °F 100% 29.87 in 0.2 mi Calm Calm - N/A Fog Light Freezing Fog
6:35 AM 32.0 °F - 32.0 °F 100% 29.87 in 0.2 mi Calm Calm - N/A Fog Fog
6:55 AM 32.0 °F - 32.0 °F 100% 29.87 in 0.2 mi Calm Calm - N/A Fog Fog
7:15 AM 32.0 °F - 32.0 °F 100% 29.86 in 0.2 mi Calm Calm - N/A Fog Fog
7:35 AM 31.6 °F - 31.6 °F 100% 29.86 in 1.0 mi Calm Calm - N/A   Overcast
7:55 AM 32.0 °F - 32.0 °F 100% 29.86 in 0.5 mi Calm Calm - N/A Fog Fog
8:15 AM 32.4 °F - 32.4 °F 100% 29.86 in 0.2 mi Calm Calm - N/A Fog Fog
8:35 AM 32.7 °F - 32.7 °F 100% 29.86 in 0.2 mi Calm Calm - N/A Fog Fog
8:55 AM 33.1 °F - 33.1 °F 100% 29.86 in 0.2 mi Calm Calm - N/A Fog Fog
9:15 AM 34.0 °F - 34.0 °F 100% 29.86 in 0.2 mi Calm Calm - N/A Fog Fog
9:35 AM 34.7 °F - 34.7 °F 100% 29.86 in 0.2 mi Calm Calm - N/A Fog Fog
9:55 AM 36.5 °F - 36.5 °F 100% 29.85 in 0.5 mi Calm Calm - N/A Fog Fog
10:15 AM 39.4 °F - 39.4 °F 100% 29.85 in 4.0 mi Calm Calm - N/A   Overcast
10:35 AM 41.2 °F - 41.2 °F 100% 29.85 in 10.0 mi Calm Calm - N/A   Mostly Cloudy
10:55 AM 42.4 °F 39.6 °F 42.4 °F 100% 29.84 in 10.0 mi SSW 4.6 mph - N/A   Scattered Clouds
11:15 AM 44.4 °F 42.9 °F 41.5 °F 90% 29.84 in 10.0 mi SSW 3.5 mph - N/A   Clear
11:35 AM 47.3 °F - 40.3 °F 77% 29.83 in 10.0 mi SW 3.5 mph - N/A   Clear
11:55 AM 50.0 °F - 40.3 °F 69% 29.83 in 10.0 mi SW 3.5 mph - N/A   Clear
12:15 PM 50.9 °F - 40.3 °F 67% 29.83 in 10.0 mi SSW 4.6 mph - N/A   Clear
12:35 PM 50.9 °F - 38.3 °F 62% 29.82 in 10.0 mi SW 3.5 mph - N/A   Clear
12:55 PM 52.7 °F - 38.1 °F 58% 29.81 in 10.0 mi SW 4.6 mph - N/A   Scattered Clouds
1:15 PM 55.0 °F - 38.1 °F 53% 29.80 in 10.0 mi SSE 3.5 mph - N/A   Scattered Clouds
1:35 PM 54.7 °F - 37.2 °F 52% 29.80 in 10.0 mi Calm Calm - N/A   Scattered Clouds
1:55 PM 54.9 °F - 36.3 °F 50% 29.79 in 10.0 mi Calm Calm - N/A   Scattered Clouds
2:15 PM 55.8 °F - 36.5 °F 48% 29.79 in 10.0 mi SSW 6.9 mph - N/A   Mostly Cloudy
2:35 PM 55.4 °F - 36.1 °F 48% 29.79 in 10.0 mi SW 3.5 mph - N/A   Mostly Cloudy
2:55 PM 55.8 °F - 36.0 °F 47% 29.79 in 10.0 mi WSW 8.1 mph - N/A   Scattered Clouds
3:15 PM 55.2 °F - 36.1 °F 49% 29.79 in 10.0 mi West 8.1 mph - N/A   Mostly Cloudy
3:35 PM 56.5 °F - 37.0 °F 48% 29.78 in 10.0 mi WSW 5.8 mph 9.2 mph N/A   Scattered Clouds
3:55 PM 55.9 °F - 33.8 °F 43% 29.78 in 10.0 mi West 8.1 mph - N/A   Mostly Cloudy
4:15 PM 56.1 °F - 35.6 °F 46% 29.78 in 10.0 mi SW 6.9 mph - N/A   Scattered Clouds
4:35 PM 55.8 °F - 36.0 °F 47% 29.78 in 10.0 mi Calm Calm - N/A   Scattered Clouds
4:55 PM 54.9 °F - 35.1 °F 47% 29.78 in 10.0 mi WSW 8.1 mph - N/A   Mostly Cloudy
5:15 PM 54.1 °F - 34.9 °F 48% 29.78 in 10.0 mi West 4.6 mph - N/A   Mostly Cloudy
5:35 PM 53.4 °F - 35.2 °F 50% 29.79 in 10.0 mi Calm Calm - N/A   Scattered Clouds
5:55 PM 50.4 °F - 38.5 °F 64% 29.79 in 10.0 mi Calm Calm - N/A   Clear
6:15 PM 46.9 °F - 40.6 °F 79% 29.79 in 10.0 mi Calm Calm - N/A   Clear
6:35 PM 45.5 °F - 40.3 °F 82% 29.79 in 10.0 mi Calm Calm - N/A   Clear
6:55 PM 44.4 °F - 40.5 °F 86% 29.79 in 10.0 mi Calm Calm - N/A   Mostly Cloudy
7:15 PM 44.2 °F - 40.1 °F 85% 29.79 in 10.0 mi Calm Calm - N/A   Overcast
7:35 PM 42.8 °F - 41.7 °F 96% 29.79 in 10.0 mi Calm Calm - N/A   Overcast
7:55 PM 42.6 °F - 41.4 °F 95% 29.79 in 10.0 mi Calm Calm - N/A   Mostly Cloudy
8:15 PM 40.6 °F - 39.7 °F 97% 29.79 in 10.0 mi Calm Calm - N/A   Scattered Clouds
8:35 PM 39.9 °F - 39.9 °F 100% 29.79 in 10.0 mi Calm Calm - N/A   Clear
8:55 PM 38.8 °F - 38.8 °F 100% 29.79 in 10.0 mi Calm Calm - N/A   Mostly Cloudy
9:15 PM 40.8 °F - 40.8 °F 100% 29.79 in 10.0 mi Calm Calm - N/A   Overcast
9:35 PM 41.5 °F - 41.4 °F 99% 29.79 in 10.0 mi Calm Calm - N/A   Overcast
9:55 PM 42.1 °F - 41.7 °F 99% 29.79 in 10.0 mi Calm Calm - N/A   Overcast
10:15 PM 42.8 °F - 41.9 °F 97% 29.79 in 10.0 mi Calm Calm - N/A   Light Drizzle
10:35 PM 43.2 °F - 42.6 °F 98% 29.78 in 10.0 mi Calm Calm - N/A   Light Drizzle
10:55 PM 43.7 °F - 43.0 °F 97% 29.78 in 10.0 mi Calm Calm - N/A Rain Light Rain
11:15 PM 43.9 °F - 43.5 °F 99% 29.77 in 10.0 mi Calm Calm - N/A Rain Light Rain
11:35 PM 44.1 °F 42.5 °F 44.1 °F 100% 29.78 in 10.0 mi West 3.5 mph - N/A   Light Drizzle
11:55 PM 43.7 °F - 43.7 °F 100% 29.78 in 10.0 mi Calm Calm - N/A Rain Light Rain